SCP
0 0 0 0 0 0 0 0 0 0 0 0 0 0 0 0 0 0 0 0 0 0
0 0 0 0 0 0 0 0 0 0 0 0 0 0 0 0 0 0 0 0 0 0
0 0 0 0 0 0 0 0 0 0 0 0 0 0 0 0 0 0 0 0 0 0
0 0 0 0 0 0 0 0 0 0 0 0 0 0 0 0 0 0 0 0 0 0
0 0 0 0 0 0 0 0 0 0 0 0 0 0 0 0 0 0 0 0 0 0
0 0 0 0 0 0 0 0 0 0 0 0 0 0 0 0 0 0 0 0 0 0
0 0 0 0 0 0 0 0 0 0 0 0 0 0 0 0 0 0 0 0 0 0
0 0 0 0 0 0 0 0 0 0 0 0 0 0 0 0 0 0 0 0 0 0
0 0 0 0 0 0 0 0 0 0 0 0 0 0 0 0 0 0 0 0 0 0
0 0 0 0 0 0 0 0 0 0 0 0 0 0 0 0 0 0 0 0 0 0
0 0 0 0 0 0 0 0 0 0 0 0 0 0 0 0 0 0 0 0 0 0
0 0 0 0 0 0 0 0 0 0 0 0 0 0 0 0 0 0 0 0 0 0
0 0 0 0 0 0 0 0 0 0 0 0 0 0 0 0 0 0 0 0 0 0
0 0 0 0 0 0 0 0 0 0 0 0 0 0 0 0 0 0 0 0 0 0
Wind_Speed_500mb
84 80 74 68 62 57 50 44 46 48 48 50 55 59 63 67 69 68 70 70 70 76
88 81 75 68 61 53 48 46 48 47 48 52 55 61 64 66 67 66 69 72 74 77
90 80 74 68 60 52 49 48 47 48 50 53 56 59 62 64 65 68 71 74 78 80
90 83 75 67 59 52 48 47 47 50 51 52 55 58 61 62 66 69 71 70 75 82
91 82 73 66 59 52 47 47 48 50 51 52 55 57 60 63 65 67 71 74 78 86
90 83 74 67 58 52 49 48 50 50 49 51 55 58 62 65 67 69 71 75 81 88
96 85 74 62 55 50 49 50 48 48 46 50 56 60 62 64 67 69 74 79 84 84
92 82 71 61 54 52 51 49 45 42 46 51 57 58 60 64 68 74 82 85 83 85
91 81 69 61 58 51 49 45 40 41 47 52 56 56 58 64 70 77 83 88 82 81
87 76 69 62 56 50 44 39 37 40 47 52 53 53 58 65 72 77 80 78 87 86
84 75 68 62 54 47 40 37 36 38 43 49 50 52 60 68 68 76 79 84 84 88
82 72 65 57 49 42 38 33 31 36 40 46 47 49 58 60 69 78 88 87 87 90
74 67 60 51 43 37 33 29 29 34 38 42 46 48 54 50 62 80 91 96 89 88
72 62 53 46 38 33 30 26 27 31 34 37 43 48 47 45 58 73 88 99 103 93
Wind_Direction_500mb
231 233 235 237 241 249 258 267 274 280 287 294 297 300 300 299 297 294 291 289 287 287
232 232 232 235 241 248 257 266 273 282 288 293 297 300 299 298 297 295 293 291 289 287
232 231 231 234 240 248 257 266 276 283 289 294 296 297 297 298 299 296 294 291 289 287
229 228 228 233 239 245 255 267 276 282 287 290 295 298 298 300 300 296 295 293 292 289
228 225 227 231 238 246 256 266 273 279 283 291 296 300 301 303 300 297 295 296 293 292
225 223 226 230 238 247 255 263 269 274 284 294 299 301 303 302 301 298 297 297 296 296
224 223 225 229 237 248 255 262 268 278 290 297 300 303 305 304 303 299 298 299 297 293
220 221 222 227 235 244 253 262 270 284 294 299 303 306 310 307 304 304 304 301 297 296
216 217 220 225 233 242 252 260 274 288 295 301 302 310 311 310 307 304 303 307 305 296
215 215 220 225 232 239 248 260 274 288 297 301 306 313 314 310 305 305 309 304 306 305
212 213 218 225 232 239 245 258 274 288 299 303 312 314 312 311 310 313 316 314 308 301
211 212 218 226 233 239 246 260 280 294 301 308 313 315 315 320 321 320 320 315 309 305
211 214 219 223 228 239 252 267 287 298 308 314 317 320 326 326 323 322 319 318 312 307
209 213 218 223 228 239 253 274 291 302 313 317 322 326 331 327 324 321 319 313 315 314
Wind_Speed_850mb
84 80 74 68 62 57 50 44 46 48 48 50 55 59 63 67 69 68 70 70 70 76
88 81 75 68 61 53 48 46 48 47 48 52 55 61 64 66 67 66 69 72 74 77
90 80 74 68 60 52 49 48 47 48 50 53 56 59 62 64 65 68 71 74 78 80
90 83 75 67 59 52 48 47 47 50 51 52 55 58 61 62 66 69 71 70 75 82
91 82 73 66 59 52 47 47 48 50 51 52 55 57 60 63 65 67 71 74 78 86
90 83 74 67 58 52 49 48 50 50 49 51 55 58 62 65 67 69 71 75 81 88
96 85 74 62 55 50 49 50 48 48 46 50 56 60 62 64 67 69 74 79 84 84
92 82 71 61 54 52 51 49 45 42 46 51 57 58 60 64 68 74 82 85 83 85
91 81 69 61 58 51 49 45 40 41 47 52 56 56 58 64 70 77 83 88 82 81
87 76 69 62 56 50 44 39 37 40 47 52 53 53 58 65 72 77 80 78 87 86
84 75 68 62 54 47 40 37 36 38 43 49 50 52 60 68 68 76 79 84 84 88
82 72 65 57 49 42 38 33 31 36 40 46 47 49 58 60 69 78 88 87 87 90
74 67 60 51 43 37 33 29 29 34 38 42 46 48 54 50 62 80 91 96 89 88
72 62 53 46 38 33 30 26 27 31 34 37 43 48 47 45 58 73 88 99 103 93
Wind_Direction_850mb
231 233 235 237 241 249 258 267 274 280 287 294 297 300 300 299 297 294 291 289 287 287
232 232 232 235 241 248 257 266 273 282 288 293 297 300 299 298 297 295 293 291 289 287
232 231 231 234 240 248 257 266 276 283 289 294 296 297 297 298 299 296 294 291 289 287
229 228 228 233 239 245 255 267 276 282 287 290 295 298 298 300 300 296 295 293 292 289
228 225 227 231 238 246 256 266 273 279 283 291 296 300 301 303 300 297 295 296 293 292
225 223 226 230 238 247 255 263 269 274 284 294 299 301 303 302 301 298 297 297 296 296
224 223 225 229 237 248 255 262 268 278 290 297 300 303 305 304 303 299 298 299 297 293
220 221 222 227 235 244 253 262 270 284 294 299 303 306 310 307 304 304 304 301 297 296
216 217 220 225 233 242 252 260 274 288 295 301 302 310 311 310 307 304 303 307 305 296
215 215 220 225 232 239 248 260 274 288 297 301 306 313 314 310 305 305 309 304 306 305
212 213 218 225 232 239 245 258 274 288 299 303 312 314 312 311 310 313 316 314 308 301
211 212 218 226 233 239 246 260 280 294 301 308 313 315 315 320 321 320 320 315 309 305
211 214 219 223 228 239 252 267 287 298 308 314 317 320 326 326 323 322 319 318 312 307
209 213 218 223 228 239 253 274 291 302 313 317 322 326 331 327 324 321 319 313 315 314